Wind_Speed
14 17 19 17 17 17 15 14 11 16 12 13 14 14 12 11 11 11 10 10 10 12 13 17 21 20 19 16 14 12 11 13 16 22 22 22 21 18 20 18 18 19 18
11 16 17 17 17 18 18 17 16 19 15 16 17 16 13 11 11 13 15 13 12 12 14 16 21 22 20 20 16 14 12 13 15 18 20 22 22 19 18 18 16 19 19
11 13 14 17 19 18 17 20 21 20 19 20 21 22 20 18 16 17 17 16 16 15 15 17 20 22 24 22 20 17 14 13 14 16 18 21 22 19 19 20 19 18 17
14 14 15 15 16 18 20 21 23 23 23 25 24 25 25 24 20 20 18 17 18 18 17 18 18 22 24 23 20 19 16 18 19 19 20 21 22 20 21 19 18 19 17
16 15 16 16 17 20 23 25 26 29 30 32 28 27 27 28 21 25 20 17 17 19 20 18 19 22 24 25 23 22 20 20 21 19 18 19 20 20 21 20 20 21 18
15 14 16 19 21 24 26 29 26 25 26 28 25 28 36 28 17 32 19 17 18 23 24 20 21 23 27 27 22 22 22 21 19 18 18 19 21 21 22 21 21 20 16
21 21 21 21 27 30 33 35 33 33 30 35 31 42 42 40 43 28 28 33 24 18 19 20 22 26 37 30 22 21 21 17 16 15 17 18 18 20 19 18 17 17 18
24 26 27 29 30 33 34 34 34 32 30 42 47 30 37 35 29 25 29 23 15 17 18 20 29 37 33 30 24 21 17 16 16 17 15 15 18 20 19 19 17 15 15
26 29 28 32 33 33 31 30 27 27 36 40 40 32 15 13 16 19 15 13 14 15 26 32 36 31 27 24 22 18 17 18 19 19 20 20 19 16 16 19 20 22 21
31 31 30 29 28 27 25 26 27 19 28 35 31 18 17 13 7 10 10 15 14 24 30 34 27 25 23 21 17 17 17 18 18 18 20 19 15 18 17 19 23 26 23
24 27 25 24 26 27 26 20 21 24 28 25 21 16 13 8 8 12 16 17 20 26 26 23 18 16 17 17 16 17 19 19 19 18 16 17 18 20 21 24 25 26 25
20 22 24 26 23 20 21 20 26 28 20 19 18 14 9 7 9 12 14 18 17 19 23 22 18 17 16 16 17 18 17 16 19 19 23 26 23 23 23 23 22 21 18
20 21 22 20 21 22 27 23 26 22 17 15 13 11 7 5 9 13 13 13 13 17 19 18 16 15 14 15 17 16 18 20 23 22 23 25 22 22 20 20 19 19 19
8 12 14 18 21 23 24 27 24 19 16 14 14 11 9 7 10 11 12 12 13 15 17 16 14 14 14 15 14 19 21 24 24 25 27 25 23 19 18 16 13 16 20
12 14 16 17 20 22 25 27 26 22 16 14 16 13 12 7 9 11 10 11 13 15 14 12 12 12 13 13 15 19 22 24 25 26 28 28 20 18 20 18 16 18 21
14 17 19 21 20 23 24 26 23 19 16 19 18 15 9 9 11 11 12 12 14 11 10 11 12 13 12 12 15 18 21 23 26 26 29 24 18 17 20 20 19 21 22
14 18 20 23 24 25 26 23 16 16 18 19 17 15 11 12 11 12 12 14 12 10 11 11 12 12 12 18 19 21 24 24 26 25 27 19 16 17 19 18 21 23 24
15 17 19 19 20 19 14 15 17 17 18 18 18 16 13 13 12 13 13 13 10 10 12 11 12 9 16 20 21 22 24 25 24 23 24 19 18 17 17 18 22 24 23
21 21 20 20 18 18 17 17 18 19 19 19 17 15 14 15 14 14 14 12 12 12 9 8 13 17 18 19 22 23 24 27 26 22 23 21 18 17 17 19 22 25 23
20 21 21 18 17 19 20 19 18 19 20 17 17 16 16 16 13 13 13 12 11 10 5 15 18 17 19 20 21 23 26 30 31 26 24 19 16 16 17 19 23 24 24
23 21 19 18 17 18 20 21 19 21 21 12 14 14 13 13 13 12 13 13 13 8 15 16 15 19 20 21 23 25 27 26 25 22 15 12 13 15 18 21 24 23 22
18 18 20 20 17 19 20 22 22 21 22 11 15 12 14 14 13 13 10 8 9 16 19 13 16 18 19 21 22 23 23 22 20 16 11 10 12 15 18 22 21 21 23
21 23 22 21 20 20 20 23 23 23 24 17 17 11 13 13 11 6 9 11 19 24 19 17 17 17 17 20 21 20 20 20 17 15 12 11 12 15 18 18 19 22 24
22 21 18 17 19 22 22 25 26 22 27 22 16 13 14 14 12 11 14 20 23 17 16 16 16 17 17 20 20 19 19 18 15 13 11 11 13 15 15 17 19 21 21
23 20 19 19 18 19 28 28 30 28 27 17 18 16 13 12 14 16 22 23 18 17 17 15 14 17 18 19 18 18 18 14 11 11 12 12 12 14 15 17 18 20 17
22 21 19 18 17 15 25 34 34 30 23 21 18 12 7 10 13 21 16 13 12 13 13 13 14 16 17 17 16 14 13 11 11 13 13 13 14 15 15 15 17 17 18
Wind_Direction
234 239 241 245 249 256 260 263 274 280 299 310 316 319 318 314 311 305 302 300 306 329 335 337 343 337 330 322 308 305 296 283 276 279 290 292 292 293 295 292 289 280 270
255 250 244 249 252 256 262 264 267 275 290 297 298 301 298 284 281 285 288 291 295 306 313 318 332 335 334 325 315 310 301 288 285 283 288 293 301 306 298 294 290 286 283
273 268 265 256 256 262 264 263 266 274 285 290 295 297 298 288 277 278 282 283 287 294 303 312 326 332 332 326 319 318 316 304 294 294 297 297 299 309 306 307 301 293 286
275 270 272 268 266 265 267 266 275 278 281 284 284 281 281 276 268 268 270 276 281 287 295 308 324 330 330 327 321 318 313 312 311 310 309 309 313 322 315 316 311 304 299
270 264 261 267 266 266 268 270 275 274 273 276 274 275 272 290 252 261 263 271 283 294 304 300 306 329 330 327 322 318 319 319 316 314 316 319 324 318 318 317 313 309 309
257 258 259 260 265 266 266 264 261 261 267 272 283 291 271 300 250 277 260 256 290 301 287 297 306 325 331 325 318 315 317 316 315 322 322 322 323 323 318 316 313 311 310
251 256 259 260 264 262 258 259 266 269 272 345 326 289 296 286 287 256 265 261 293 279 282 289 299 312 323 316 316 316 315 316 319 321 324 322 320 317 322 317 311 308 310
243 253 255 257 259 261 263 269 275 282 283 298 315 289 309 293 282 265 286 278 263 275 283 293 310 319 312 313 313 313 313 318 320 320 327 324 323 324 322 321 321 317 317
243 248 254 256 263 270 278 281 285 286 289 301 302 299 312 306 274 271 269 252 258 282 299 303 301 302 305 304 307 313 321 321 323 327 332 333 328 321 321 324 336 329 337
244 249 256 264 272 276 272 266 274 288 291 293 295 286 298 294 275 238 235 246 269 295 303 300 298 302 299 304 311 314 318 320 322 323 326 326 319 330 336 318 307 310 316
244 255 262 264 258 254 261 262 267 286 293 294 285 297 281 270 242 232 245 262 285 303 294 297 305 296 301 311 315 315 318 321 325 327 325 324 335 299 293 299 300 307 307
249 250 251 252 257 258 254 259 273 286 285 283 285 286 270 240 235 241 270 286 288 291 287 297 307 310 315 313 314 318 320 329 339 333 342 331 318 300 307 312 307 303 296
251 254 256 260 261 263 274 272 276 280 276 276 272 267 258 242 253 261 270 264 278 283 294 298 302 305 306 308 312 318 342 340 341 338 328 327 331 325 314 309 307 308 317
254 261 269 268 269 268 269 275 284 281 273 269 255 255 256 234 245 254 254 267 280 288 291 290 297 299 308 306 326 343 335 334 329 329 326 330 329 325 320 313 319 320 320
259 267 267 263 268 274 276 279 282 267 254 252 251 255 251 239 244 245 261 284 288 286 281 289 294 304 313 333 339 324 320 314 315 317 321 325 315 313 316 308 313 318 318
261 264 265 268 268 272 279 279 269 254 255 259 260 252 256 234 239 254 269 286 290 286 291 298 310 311 314 337 318 317 322 317 322 322 319 321 307 304 313 318 318 317 315
277 272 272 278 276 282 282 275 246 249 253 261 253 251 240 237 241 271 286 293 293 293 294 302 302 299 332 324 323 323 320 318 321 320 323 322 306 303 308 318 324 326 328
295 295 290 288 291 284 265 259 252 251 256 259 252 252 246 247 259 272 291 290 283 279 285 298 303 325 292 315 317 320 319 317 319 310 314 315 301 300 305 317 326 323 326
294 288 286 280 275 272 263 270 255 245 250 252 247 246 245 243 261 270 288 286 277 279 292 312 292 290 309 314 317 319 319 315 318 311 302 305 295 294 301 313 323 322 321
292 290 288 279 271 261 257 259 253 248 248 258 248 252 245 241 264 274 279 277 278 280 256 262 283 301 308 314 317 320 323 323 324 314 299 292 286 292 300 313 318 320 322
286 281 278 276 272 260 253 252 253 255 258 254 238 246 235 247 262 270 279 270 264 265 271 290 305 305 308 316 323 324 327 327 327 327 306 284 283 290 303 314 319 322 323
292 291 283 275 267 264 251 244 243 239 260 256 246 231 230 246 257 266 278 311 317 277 289 306 293 298 310 318 323 324 327 330 330 329 321 303 295 301 309 316 321 327 324
293 296 288 278 268 253 245 234 228 228 242 262 248 223 233 248 244 181 236 229 246 273 306 299 297 306 318 320 323 325 330 332 334 333 329 320 313 310 315 320 327 329 329
291 298 289 278 273 242 223 224 227 222 228 246 238 219 246 230 219 184 214 239 262 295 297 299 306 319 324 321 322 324 329 332 332 335 334 328 320 320 325 329 332 337 336
283 288 288 284 278 252 218 218 226 230 240 250 234 240 239 215 182 207 235 256 285 288 298 302 323 323 326 323 322 323 334 340 341 341 339 337 336 335 336 337 344 342 343
283 284 285 282 268 264 215 214 219 225 227 221 197 202 211 160 201 236 263 282 278 289 292 320 326 326 327 327 326 328 341 344 341 343 341 340 339 338 341 343 347 347 353
Height
3182 3184 3186 3188 3190 3191 3193 3195 3196 3195 3197 3197 3196 3196 3196 3196 3195 3194 3193 3192 3190 3189 3189 3187 3183 3179 3175 3174 3171 3170 3170 3169 3166 3163 3162 3162 3162 3161 3158 3157 3157 3157 3157
3179 3180 3183 3185 3186 3188 3190 3193 3195 3194 3195 3195 3194 3193 3192 3192 3190 3189 3189 3189 3188 3186 3184 3183 3181 3177 3174 3171 3169 3166 3165 3164 3163 3161 3158 3156 3156 3156 3153 3152 3151 3148 3150
3176 3178 3180 3181 3183 3186 3188 3189 3190 3191 3191 3191 3191 3190 3189 3187 3186 3185 3185 3184 3184 3182 3181 3180 3177 3174 3172 3168 3165 3163 3161 3160 3158 3156 3154 3152 3150 3150 3148 3146 3144 3143 3142
3174 3176 3177 3178 3180 3182 3183 3185 3185 3187 3187 3186 3186 3185 3184 3180 3181 3179 3178 3179 3179 3179 3177 3176 3175 3171 3168 3165 3163 3160 3158 3155 3154 3152 3149 3146 3144 3144 3141 3140 3138 3136 3135
3172 3172 3174 3175 3177 3178 3179 3181 3183 3182 3183 3179 3178 3178 3175 3165 3174 3176 3176 3173 3172 3174 3174 3172 3170 3169 3165 3162 3160 3157 3154 3152 3149 3146 3143 3140 3139 3137 3136 3135 3132 3130 3129
3168 3169 3170 3172 3173 3174 3176 3177 3179 3178 3176 3173 3175 3180 3172 3172 3164 3172 3172 3167 3166 3169 3171 3168 3166 3166 3162 3160 3156 3153 3150 3147 3145 3143 3141 3138 3134 3132 3131 3128 3125 3125 3125
3164 3165 3166 3167 3168 3168 3167 3169 3170 3170 3169 3138 3153 3165 3165 3161 3160 3157 3162 3163 3163 3164 3166 3162 3160 3160 3158 3156 3153 3149 3146 3143 3142 3140 3138 3135 3132 3131 3127 3126 3123 3120 3118
3161 3161 3161 3161 3160 3160 3162 3165 3166 3169 3167 3158 3153 3152 3152 3149 3150 3154 3155 3158 3159 3160 3160 3159 3156 3154 3152 3149 3147 3145 3143 3141 3138 3136 3133 3130 3127 3124 3123 3120 3119 3117 3116
3155 3155 3156 3154 3156 3158 3161 3164 3165 3163 3159 3157 3150 3148 3144 3143 3146 3149 3152 3154 3155 3156 3156 3154 3153 3150 3149 3146 3144 3142 3138 3136 3132 3131 3129 3127 3125 3122 3117 3116 3115 3112 3110
3149 3149 3150 3152 3154 3155 3155 3157 3157 3158 3155 3151 3147 3143 3141 3142 3143 3147 3148 3150 3151 3152 3151 3150 3147 3146 3146 3142 3138 3137 3134 3131 3128 3126 3125 3121 3119 3114 3112 3111 3111 3108 3107
3143 3146 3147 3147 3146 3147 3150 3151 3152 3151 3148 3144 3142 3139 3139 3139 3140 3144 3146 3146 3146 3147 3147 3145 3144 3143 3142 3138 3134 3132 3130 3127 3125 3122 3119 3116 3112 3111 3107 3105 3105 3104 3103
3140 3139 3140 3140 3142 3143 3145 3147 3146 3145 3142 3141 3139 3137 3136 3136 3139 3141 3143 3143 3143 3144 3141 3141 3140 3138 3136 3135 3132 3129 3126 3122 3118 3117 3111 3111 3108 3106 3103 3100 3098 3097 3096
3135 3135 3136 3138 3139 3140 3140 3139 3139 3137 3136 3136 3135 3134 3133 3135 3137 3139 3140 3140 3141 3141 3140 3138 3137 3135 3132 3131 3129 3126 3121 3118 3115 3112 3110 3109 3103 3102 3100 3097 3095 3093 3091
3131 3132 3133 3133 3134 3134 3134 3132 3132 3131 3131 3130 3131 3132 3133 3133 3135 3136 3137 3138 3137 3137 3136 3135 3133 3132 3130 3127 3123 3120 3119 3115 3113 3110 3105 3104 3100 3098 3096 3093 3091 3089 3086
3129 3129 3129 3129 3129 3129 3128 3128 3127 3127 3128 3128 3130 3129 3130 3130 3132 3133 3134 3133 3133 3133 3132 3132 3130 3127 3125 3122 3120 3119 3115 3113 3111 3107 3103 3099 3096 3094 3092 3089 3087 3084 3081
3125 3124 3124 3124 3125 3123 3123 3122 3121 3122 3123 3125 3125 3125 3126 3127 3128 3129 3130 3130 3129 3128 3129 3126 3125 3124 3122 3119 3118 3116 3114 3111 3106 3103 3099 3095 3091 3090 3088 3085 3082 3080 3076
3121 3120 3120 3118 3119 3117 3117 3117 3117 3119 3120 3121 3121 3121 3123 3124 3124 3125 3125 3125 3124 3125 3124 3123 3121 3120 3118 3116 3115 3113 3110 3106 3102 3098 3094 3091 3088 3087 3085 3081 3078 3074 3070
3116 3115 3113 3113 3113 3112 3112 3114 3114 3115 3117 3117 3117 3118 3118 3119 3121 3122 3122 3122 3122 3121 3120 3120 3118 3116 3115 3113 3112 3109 3106 3102 3098 3094 3090 3087 3084 3083 3081 3078 3074 3071 3067
3111 3110 3109 3109 3108 3108 3109 3110 3111 3112 3113 3113 3114 3115 3116 3117 3119 3119 3120 3119 3118 3118 3117 3116 3115 3113 3112 3110 3107 3104 3100 3096 3092 3089 3085 3082 3080 3078 3076 3074 3071 3066 3063
3106 3105 3104 3103 3103 3103 3104 3105 3108 3108 3108 3109 3111 3111 3113 3115 3116 3116 3116 3116 3115 3115 3114 3113 3111 3111 3108 3105 3103 3099 3093 3089 3084 3081 3079 3076 3075 3074 3071 3069 3066 3062 3058
3101 3100 3099 3098 3098 3098 3098 3099 3101 3102 3103 3105 3106 3108 3110 3111 3112 3112 3112 3113 3112 3110 3109 3109 3110 3107 3104 3101 3097 3093 3089 3085 3080 3076 3073 3071 3070 3069 3067 3065 3062 3057 3053
3094 3094 3093 3092 3092 3093 3093 3095 3096 3097 3097 3100 3102 3104 3105 3108 3109 3109 3109 3108 3108 3107 3105 3108 3106 3103 3100 3097 3094 3089 3085 3082 3078 3074 3070 3068 3067 3066 3064 3061 3057 3053 3049
3088 3087 3085 3084 3085 3087 3088 3089 3090 3092 3093 3096 3097 3100 3103 3104 3105 3108 3110 3109 3106 3103 3103 3103 3101 3099 3096 3092 3089 3086 3083 3079 3075 3072 3068 3066 3065 3063 3060 3057 3054 3050 3046
3082 3080 3079 3079 3078 3079 3082 3083 3086 3089 3089 3092 3095 3098 3100 3101 3103 3106 3107 3104 3102 3102 3102 3099 3097 3094 3092 3089 3086 3083 3080 3076 3072 3069 3067 3064 3062 3060 3057 3055 3051 3047 3043
3075 3074 3073 3073 3073 3072 3075 3078 3078 3082 3085 3089 3091 3093 3096 3098 3100 3102 3100 3100 3101 3100 3097 3095 3093 3090 3088 3086 3083 3080 3077 3073 3070 3068 3065 3063 3061 3058 3055 3052 3048 3045 3041
3070 3068 3067 3066 3067 3067 3069 3071 3073 3077 3083 3085 3086 3090 3094 3096 3098 3097 3097 3099 3098 3096 3094 3092 3090 3088 3086 3083 3080 3077 3074 3072 3069 3067 3064 3062 3059 3056 3053 3051 3047 3043 3038